| time (UTC) | temp F | wind direction | speed MPH | gust MPH | rain 1hr in | rain 24hr in | rain mn in | humidity % | barometer mb |
| 20260831224154 | 94 | 117 | 6.0 | 13.0 | 0.00 | 0.00 | 0.00 | 50 | 1013.6 |
| 20260831222656 | 95 | 165 | 8.0 | 18.0 | 0.00 | 0.00 | 0.00 | 50 | 1013.5 |
| 20260831221154 | 96 | 166 | 4.0 | 16.0 | 0.00 | 0.00 | 0.00 | 50 | 1013.5 |
| 20260831215653 | 95 | 144 | 4.0 | 16.0 | 0.00 | 0.00 | 0.00 | 49 | 1013.5 |
| 20260831214851 | 95 | 166 | 6.0 | 20.0 | 0.00 | 0.00 | 0.00 | 51 | 1013.7 |
| 20260831212655 | 94 | 159 | 9.0 | 22.0 | 0.00 | 0.00 | 0.00 | 53 | 1013.9 |
| 20260831211153 | 94 | 179 | 13.0 | 24.0 | 0.00 | 0.00 | 0.00 | 52 | 1013.9 |
| 20260831210358 | 94 | 138 | 7.0 | 18.0 | 0.00 | 0.00 | 0.00 | 52 | 1014.1 |
| 20260831204152 | 95 | 121 | 4.0 | 11.0 | 0.00 | 0.00 | 0.00 | 47 | 1014.2 |
| 20260831203404 | 97 | 113 | 5.0 | 11.0 | 0.00 | 0.00 | 0.00 | 45 | 1014.3 |
| 20260831201152 | 97 | 109 | 2.0 | 9.0 | 0.00 | 0.00 | 0.00 | 47 | 1014.5 |
| 20260831195653 | 94 | 0 | 3.0 | 11.0 | 0.00 | 0.00 | 0.00 | 47 | 1014.7 |
| 20260831194841 | 98 | 161 | 4.0 | 13.0 | 0.00 | 0.00 | 0.00 | 44 | 1014.9 |
| 20260831192652 | 97 | 172 | 5.0 | 9.0 | 0.00 | 0.00 | 0.00 | 45 | 1015.0 |
| 20260831191151 | 95 | 186 | 2.0 | 11.0 | 0.00 | 0.00 | 0.00 | 46 | 1015.4 |
| 20260831185652 | 96 | 172 | 3.0 | 9.0 | 0.00 | 0.00 | 0.00 | 45 | 1015.5 |
| 20260831184149 | 94 | 58 | 2.0 | 16.0 | 0.00 | 0.00 | 0.00 | 49 | 1015.7 |
| 20260831182651 | 95 | 166 | 5.0 | 11.0 | 0.00 | 0.00 | 0.00 | 49 | 1015.8 |
| 20260831181149 | 94 | 175 | 5.0 | 11.0 | 0.00 | 0.00 | 0.00 | 53 | 1016.2 |
| 20260831175650 | 93 | 125 | 2.0 | 9.0 | 0.00 | 0.00 | 0.00 | 51 | 1016.3 |
| 20260831174149 | 92 | 85 | 2.0 | 11.0 | 0.00 | 0.00 | 0.00 | 56 | 1016.5 |
| 20260831172650 | 93 | 90 | 3.0 | 7.0 | 0.00 | 0.00 | 0.00 | 55 | 1016.7 |
| 20260831171848 | 93 | 186 | 3.0 | 7.0 | 0.00 | 0.00 | 0.00 | 54 | 1016.8 |
| 20260831165649 | 93 | 117 | 5.0 | 11.0 | 0.00 | 0.00 | 0.00 | 54 | 1016.9 |
| 20260831164837 | 91 | 20 | 1.0 | 9.0 | 0.00 | 0.00 | 0.00 | 59 | 1017.0 |
| 20260831162647 | 91 | 348 | 5.0 | 9.0 | 0.00 | 0.00 | 0.00 | 60 | 1017.0 |
| 20260831161147 | 90 | 164 | 5.0 | 7.0 | 0.00 | 0.00 | 0.00 | 62 | 1017.1 |
| 20260831155646 | 88 | 172 | 4.0 | 7.0 | 0.00 | 0.00 | 0.00 | 65 | 1017.2 |
| 20260831154146 | 88 | 155 | 3.0 | 7.0 | 0.00 | 0.00 | 0.00 | 59 | 1017.1 |
| 20260831152645 | 88 | 350 | 3.0 | 7.0 | 0.00 | 0.00 | 0.00 | 63 | 1016.9 |
| 20260831151145 | 87 | 99 | 1.0 | 9.0 | 0.00 | 0.00 | 0.00 | 70 | 1016.9 |
| 20260831145645 | 86 | 72 | 3.0 | 7.0 | 0.00 | 0.00 | 0.00 | 72 | 1016.9 |
| 20260831144835 | 85 | 10 | 2.0 | 7.0 | 0.00 | 0.00 | 0.00 | 73 | 1016.9 |
| 20260831142644 | 85 | 138 | 1.0 | 5.0 | 0.00 | 0.00 | 0.00 | 77 | 1016.8 |
| 20260831141144 | 83 | 90 | 3.0 | 5.0 | 0.00 | 0.00 | 0.00 | 80 | 1016.7 |
| 20260831135643 | 81 | 92 | 2.0 | 7.0 | 0.00 | 0.00 | 0.00 | 82 | 1016.6 |
| 20260831134144 | 80 | 120 | 2.0 | 5.0 | 0.00 | 0.00 | 0.00 | 84 | 1016.6 |
| 20260831132644 | 80 | 121 | 3.0 | 5.0 | 0.00 | 0.00 | 0.00 | 85 | 1016.5 |
| 20260831131143 | 78 | 124 | 2.0 | 5.0 | 0.00 | 0.00 | 0.00 | 86 | 1016.2 |
| 20260831125643 | 77 | 165 | 2.0 | 3.0 | 0.00 | 0.00 | 0.00 | 87 | 1016.2 |
| 20260831124142 | 77 | 165 | 1.0 | 3.0 | 0.00 | 0.00 | 0.00 | 87 | 1016.2 |
| 20260831122641 | 77 | 166 | 1.0 | 3.0 | 0.00 | 0.00 | 0.00 | 87 | 1015.9 |
| 20260831121842 | 77 | 165 | 0.0 | 2.0 | 0.00 | 0.00 | 0.00 | 87 | 1015.7 |
| 20260831115644 | 77 | 166 | 0.0 | 2.0 | 0.00 | 0.00 | 0.00 | 87 | 1015.5 |
| 20260831114140 | 77 | 165 | 0.0 | 2.0 | 0.00 | 0.00 | 0.00 | 87 | 1015.4 |
| 20260831112641 | 77 | 165 | 0.0 | 2.0 | 0.00 | 0.00 | 0.00 | 87 | 1015.4 |
| 20260831111140 | 78 | 165 | 0.0 | 2.0 | 0.00 | 0.00 | 0.00 | 86 | 1015.4 |
| 20260831110340 | 78 | 165 | 0.0 | 0.0 | 0.00 | 0.00 | 0.00 | 86 | 1015.3 |
| 20260831104139 | 78 | 166 | 0.0 | 0.0 | 0.00 | 0.00 | 0.00 | 86 | 1015.2 |
| 20260831102640 | 78 | 165 | 0.0 | 2.0 | 0.00 | 0.00 | 0.00 | 85 | 1015.0 |
| 20260831101139 | 78 | 166 | 0.0 | 2.0 | 0.00 | 0.00 | 0.00 | 85 | 1015.4 |
| 20260831095639 | 78 | 165 | 0.0 | 0.0 | 0.00 | 0.00 | 0.00 | 85 | 1015.4 |
| 20260831094138 | 78 | 166 | 0.0 | 0.0 | 0.00 | 0.00 | 0.00 | 85 | 1015.3 |
| 20260831092638 | 78 | 166 | 0.0 | 0.0 | 0.00 | 0.00 | 0.00 | 84 | 1015.2 |
| 20260831091138 | 79 | 166 | 0.0 | 0.0 | 0.00 | 0.00 | 0.00 | 84 | 1015.2 |
| 20260831085638 | 79 | 166 | 0.0 | 0.0 | 0.00 | 0.00 | 0.00 | 83 | 1015.2 |
| 20260831084137 | 79 | 166 | 0.0 | 0.0 | 0.00 | 0.00 | 0.00 | 83 | 1015.2 |
| 20260831083336 | 80 | 165 | 0.0 | 0.0 | 0.00 | 0.00 | 0.00 | 82 | 1015.3 |
| 20260831081136 | 80 | 166 | 0.0 | 2.0 | 0.00 | 0.00 | 0.00 | 81 | 1015.3 |
| 20260831075636 | 80 | 166 | 0.0 | 0.0 | 0.00 | 0.00 | 0.00 | 80 | 1015.3 |
| 20260831074135 | 81 | 166 | 0.0 | 2.0 | 0.00 | 0.00 | 0.00 | 79 | 1015.5 |
| 20260831072634 | 81 | 166 | 1.0 | 3.0 | 0.00 | 0.00 | 0.00 | 79 | 1015.5 |
| 20260831071132 | 82 | 165 | 0.0 | 2.0 | 0.00 | 0.00 | 0.00 | 78 | 1015.5 |
| 20260831071025 | 82 | 165 | 0.0 | 3.0 | 0.00 | 0.00 | 0.00 | 77 | 1015.4 |
| 20260831064132 | 82 | 165 | 0.0 | 2.0 | 0.00 | 0.00 | 0.00 | 76 | 1015.5 |
| 20260831062631 | 83 | 165 | 0.0 | 5.0 | 0.00 | 0.00 | 0.00 | 76 | 1015.5 |
| 20260831061132 | 83 | 165 | 2.0 | 7.0 | 0.00 | 0.00 | 0.00 | 75 | 1015.5 |
| 20260831055632 | 83 | 169 | 2.0 | 7.0 | 0.00 | 0.00 | 0.00 | 75 | 1015.6 |
| 20260831054132 | 83 | 176 | 3.0 | 11.0 | 0.00 | 0.00 | 0.00 | 74 | 1015.5 |
| 20260831052632 | 84 | 154 | 2.0 | 9.0 | 0.00 | 0.00 | 0.00 | 73 | 1015.5 |
| 20260831052530 | 84 | 183 | 1.0 | 7.0 | 0.00 | 0.00 | 0.00 | 72 | 1015.4 |
| 20260831045630 | 84 | 148 | 2.0 | 9.0 | 0.00 | 0.00 | 0.00 | 71 | 1015.2 |
| 20260831044130 | 84 | 137 | 3.0 | 11.0 | 0.00 | 0.00 | 0.00 | 70 | 1015.2 |
| 20260831042631 | 84 | 162 | 2.0 | 7.0 | 0.00 | 0.00 | 0.00 | 69 | 1015.1 |
| 20260831041131 | 84 | 165 | 1.0 | 7.0 | 0.00 | 0.00 | 0.00 | 69 | 1015.0 |
| 20260831041007 | 85 | 168 | 2.0 | 5.0 | 0.00 | 0.00 | 0.00 | 67 | 1014.9 |
| 20260831034131 | 85 | 144 | 2.0 | 5.0 | 0.00 | 0.00 | 0.00 | 66 | 1014.8 |
| 20260831032630 | 86 | 151 | 3.0 | 9.0 | 0.00 | 0.00 | 0.00 | 64 | 1014.8 |
| 20260831031130 | 86 | 152 | 5.0 | 13.0 | 0.00 | 0.00 | 0.00 | 63 | 1014.6 |
| 20260831025629 | 87 | 137 | 3.0 | 11.0 | 0.00 | 0.00 | 0.00 | 61 | 1014.3 |
| 20260831024129 | 87 | 157 | 2.0 | 13.0 | 0.00 | 0.00 | 0.00 | 58 | 1014.2 |
| 20260831022630 | 87 | 151 | 3.0 | 7.0 | 0.00 | 0.00 | 0.00 | 57 | 1013.9 |
| 20260831021128 | 88 | 165 | 2.0 | 7.0 | 0.00 | 0.00 | 0.00 | 56 | 1013.7 |
| 20260831015628 | 88 | 169 | 2.0 | 7.0 | 0.00 | 0.00 | 0.00 | 54 | 1013.6 |
| 20260831014825 | 89 | 145 | 2.0 | 11.0 | 0.00 | 0.00 | 0.00 | 52 | 1013.4 |
| 20260831013335 | 90 | 158 | 5.0 | 14.0 | 0.00 | 0.00 | 0.00 | 50 | 1013.4 |
| 20260831011824 | 90 | 169 | 4.0 | 13.0 | 0.00 | 0.00 | 0.00 | 48 | 1013.5 |
| 20260831005627 | 91 | 154 | 9.0 | 18.0 | 0.00 | 0.00 | 0.00 | 46 | 1013.4 |
| 20260831004127 | 92 | 154 | 7.0 | 20.0 | 0.00 | 0.00 | 0.00 | 46 | 1013.2 |
| 20260831002628 | 93 | 178 | 10.0 | 18.0 | 0.00 | 0.00 | 0.00 | 46 | 1013.2 |
| 20260831001126 | 94 | 217 | 7.0 | 14.0 | 0.00 | 0.00 | 0.00 | 45 | 1013.1 |
| 20260830235625 | 94 | 121 | 5.0 | 14.0 | 0.00 | 0.00 | 0.00 | 44 | 1013.1 |
| 20260830234125 | 95 | 149 | 8.0 | 14.0 | 0.00 | 0.00 | 0.00 | 42 | 1013.0 |
| 20260830232627 | 96 | 109 | 3.0 | 16.0 | 0.00 | 0.00 | 0.00 | 41 | 1013.0 |
| 20260830231125 | 96 | 162 | 2.0 | 9.0 | 0.00 | 0.00 | 0.00 | 41 | 1013.0 |